Regional Weather Roundup
Issued by NWS

Home | Current Version | Previous Version | Graphics & Text | Print | Product List | Glossary Off
Versions: 1 2 3 4 5 6 7 8 9 10 11 12 13 14 15 16 17 18 19 20 21 22 23 24 25 26 27 28 29 30 31 32 33 34 35 36 37 38 39 40 41 42 43 44 45 46 47 48 49 50

000
ASUS43 KFSD 111902
RWRSD

WEATHER ROUNDUP FOR SOUTH DAKOTA
NATIONAL WEATHER SERVICE SIOUX FALLS SD
100 PM CST MON DEC 11 2017

NOTE: "FAIR" INDICATES FEW OR NO CLOUDS BELOW 12,000 FEET WITH NO
SIGNIFICANT WEATHER AND/OR OBSTRUCTIONS TO VISIBILITY.


SDZ001>005-009-010-012>017-112000-
NORTHWEST AND NORTH CENTRAL SOUTH DAKOTA

CITY           SKY/WX    TMP DP  RH WIND       PRES   REMARKS
BUFFALO          N/A     37  28  70 NW31G45   30.24R
FAITH            N/A     38  30  73 NW26G35   30.26
MOBRIDGE       CLOUDY    39  30  70 N20G32    30.18
$$

SDZ012>016-024>037-041>051-057-063-072>074-112000-
SOUTHWEST AND SOUTH CENTRAL SOUTH DAKOTA

CITY           SKY/WX    TMP DP  RH WIND       PRES   REMARKS
RAPID CTY ARPT CLOUDY    42  21  43 N31G46    30.29
PIERRE         LGT RAIN  37  35  92 NW21      30.23R
CUSTER         CLOUDY    39  -2  17 N9G26     30.25
ELLSWORTH AFB  PTSUNNY   42  21  43 NW33G45   30.29
PHILIP         CLOUDY    43  29  57 NW28G38   30.27
PINE RIDGE     PTSUNNY   44  23  43 N20G26    30.30
SPEARFISH      FAIR      37  19  48 NW16G26   30.36R
WINNER         CLOUDY    41  30  65 NW26G33   30.21
$$

SDZ004>011-016>023-039-040-112000-
NORTHEAST SOUTH DAKOTA

CITY           SKY/WX    TMP DP  RH WIND       PRES   REMARKS
ABERDEEN       CLOUDY    33  26  75 N23G32    30.18R WCI  21
WATERTOWN      CLOUDY    30  26  85 N25G36    30.07  WCI  16
BROOKINGS      CLOUDY    33  26  75 N22G37    30.03R WCI  21
SISSETON         N/A     28  23  81 N31       30.11  WCI  12
$$

SDZ017-020-022-023-036>040-048>070-112000-
SOUTHEAST SOUTH DAKOTA

CITY           SKY/WX    TMP DP  RH WIND       PRES   REMARKS
SIOUX FALLS    CLOUDY    37  30  75 N32G46    30.03
HURON          CLOUDY    37  32  82 N22G29    30.13
CHAMBERLAIN    CLOUDY    40  35  81 NW20G25   30.19R
MITCHELL       CLOUDY    40  33  76 N26G36    30.13
YANKTON        CLOUDY    41  34  76 NW25G35   30.07
$$

ABBREVIATIONS USED IN REMARKS
   TC - TEMPERATURE IN CELSIUS
  WCI - WIND CHILL INDEX
   HX - HEAT INDEX
  VSB - VISIBILITY




USA.gov is the U.S. government's official web portal to all federal, state and local government web resources and services.